Preston, Minnesota, United States (55965)
Lat: 43.67N, Lon: 92.08W
Wx Zone: MNZ095
Local Info
Past Weather Observations for Today

NOTE: This archive is for the closest National Weather Service station to Preston. Information may differ from the station used for current weather conditions.

Click here for Long-term Archive

Time Weather Temperature Dewpoint Humidity Pressure Winds Precip Visibility
21:56
Clear
Fog And Mist
55°F / 13°C 54°F / 12°C 94% 29.83 in
(1010 mb)
SE 3.5 mph
(SE 6 kph)
- 4SM
21:35
Mostly Cloudy
55°F / 13°C 54°F / 12°C 94% 29.83 in
(1010 mb)
Calm - 7SM
21:15
Overcast
55°F / 13°C 54°F / 12°C 94% 29.86 in
(1011 mb)
SE 3.5 mph
(SE 6 kph)
- 7SM
20:56
Overcast
57°F / 14°C 54°F / 12°C 88% 29.86 in
(1011 mb)
Calm - 7SM
20:35
Overcast
55°F / 13°C 54°F / 12°C 94% 29.86 in
(1011 mb)
Calm - 7SM
20:15
Overcast
55°F / 13°C 54°F / 12°C 94% 29.86 in
(1011 mb)
Calm - 7SM
19:56
Overcast
Fog And Mist
55°F / 13°C 54°F / 12°C 94% 29.83 in
(1010 mb)
Calm - 5SM
19:35
Mostly Cloudy
55°F / 13°C 54°F / 12°C 94% 29.83 in
(1010 mb)
Calm - 7SM
19:15
Mostly Cloudy
55°F / 13°C 54°F / 12°C 94% 29.83 in
(1010 mb)
Calm - 7SM
18:56
Overcast
57°F / 14°C 54°F / 12°C 88% 29.83 in
(1010 mb)
Calm - 7SM
18:35
Overcast
55°F / 13°C 54°F / 12°C 94% 29.83 in
(1010 mb)
NW 3.5 mph
(NW 6 kph)
- 7SM
18:15
Overcast
55°F / 13°C 54°F / 12°C 94% 29.83 in
(1010 mb)
Calm - 7SM
17:56
Mostly Cloudy
55°F / 13°C 54°F / 12°C 94% 29.83 in
(1010 mb)
NW 3.5 mph
(NW 6 kph)
- 7SM
17:35
Mostly Cloudy
57°F / 14°C 54°F / 12°C 88% 29.83 in
(1010 mb)
Calm - 7SM
17:15
Mostly Cloudy
59°F / 15°C 54°F / 12°C 82% 29.8 in
(1009 mb)
Calm - 7SM
16:56
Overcast
59°F / 15°C 54°F / 12°C 82% 29.83 in
(1010 mb)
Calm - 7SM
16:35
Overcast
57°F / 14°C 54°F / 12°C 88% 29.8 in
(1009 mb)
Calm - 7SM
16:15
Overcast
57°F / 14°C 54°F / 12°C 88% 29.8 in
(1009 mb)
Calm - 7SM
15:56
Overcast
57°F / 14°C 54°F / 12°C 88% 29.8 in
(1009 mb)
Calm - 10SM
15:35
Overcast
57°F / 14°C 54°F / 12°C 88% 29.8 in
(1009 mb)
Calm - 10SM
15:15
Overcast
57°F / 14°C 52°F / 11°C 82% 29.8 in
(1009 mb)
Calm - 7SM
14:56
Overcast
55°F / 13°C 52°F / 11°C 88% 29.83 in
(1010 mb)
Calm - 7SM
14:35
Overcast
55°F / 13°C 52°F / 11°C 88% 29.83 in
(1010 mb)
SSE 3.5 mph
(SSE 6 kph)
- 7SM
14:15
Overcast
55°F / 13°C 52°F / 11°C 88% 29.8 in
(1009 mb)
SE 4.6 mph
(SE 7 kph)
- 7SM
13:55
Overcast
55°F / 13°C 52°F / 11°C 88% 29.83 in
(1010 mb)
SSE 6.9 mph
(SSE 11 kph)
- 7SM
13:35
Overcast
55°F / 13°C 52°F / 11°C 88% 29.83 in
(1010 mb)
SSE 9.2 mph
(SSE 15 kph)
- 7SM
13:16
Overcast
Fog And Mist
55°F / 13°C 52°F / 11°C 88% 29.83 in
(1010 mb)
SSE 9.2 mph
(SSE 15 kph)
- 5SM
12:55
Overcast
Light Rain
55°F / 13°C 52°F / 11°C 88% 29.83 in
(1010 mb)
SSE 5.8 mph
(SSE 9 kph)
0.01 in
(0.25 mm)
4SM
12:35
Overcast
55°F / 13°C 52°F / 11°C 88% 29.86 in
(1011 mb)
SSE 8.1 mph
(SSE 13 kph)
- 7SM
12:16
Overcast
Fog And Mist
54°F / 12°C 52°F / 11°C 94% 29.86 in
(1011 mb)
S 9.2 mph
(S 15 kph)
- 5SM
11:55
Overcast
54°F / 12°C 50°F / 10°C 88% 29.86 in
(1011 mb)
SSE 8.1 mph
(SSE 13 kph)
- 7SM
11:35
Overcast
54°F / 12°C 50°F / 10°C 88% 29.86 in
(1011 mb)
SSE 9.2 mph
(SSE 15 kph)
- 7SM
11:16
Overcast
54°F / 12°C 50°F / 10°C 88% 29.83 in
(1010 mb)
SE 11.5 mph
(SE 19 kph)
- 7SM
10:55
Overcast
Fog And Mist
54°F / 12°C 50°F / 10°C 88% 29.83 in
(1010 mb)
SSE 10.4 mph
(SSE 17 kph)
- 5SM
10:35
Overcast
Fog And Mist
52°F / 11°C 50°F / 10°C 94% 29.86 in
(1011 mb)
SE 10.4 mph
(SE 17 kph)
- 5SM
10:15
Overcast
Fog And Mist
50°F / 10°C 48°F / 9°C 94% 29.86 in
(1011 mb)
SE 9.2 mph
(SE 15 kph)
- 5SM
09:56
Overcast
Light Rain
50°F / 10°C 48°F / 9°C 94% 29.86 in
(1011 mb)
SE 10.4 mph
(SE 17 kph)
0.02 in
(0.51 mm)
4SM
09:35
Overcast
Light Rain
50°F / 10°C 48°F / 9°C 94% 29.86 in
(1011 mb)
SE 11.5 mph
(SE 19 kph)
0.01 in
(0.25 mm)
3SM
09:15
Overcast
Fog And Mist
50°F / 10°C 48°F / 9°C 94% 29.86 in
(1011 mb)
SE 11.5 mph
(SE 19 kph)
- 4SM
08:56
Overcast
Fog And Mist
48°F / 9°C 48°F / 9°C 100% 29.89 in
(1012 mb)
SE 11.5 mph
(SE 19 kph)
0.01 in
(0.25 mm)
4SM
08:35
Overcast
Light Rain
48°F / 9°C 46°F / 8°C 94% 29.89 in
(1012 mb)
SE 9.2 mph
(SE 15 kph)
0.01 in
(0.25 mm)
4SM
08:15
Overcast
Light Rain
48°F / 9°C 46°F / 8°C 94% 29.89 in
(1012 mb)
SE 9.2 mph
(SE 15 kph)
0.01 in
(0.25 mm)
3SM
07:55
Overcast
Rain
48°F / 9°C 46°F / 8°C 94% 29.89 in
(1012 mb)
SE 9.2 mph
(SE 15 kph)
0.05 in
(1.27 mm)
3SM
07:36
Overcast
Light Rain
48°F / 9°C 46°F / 8°C 94% 29.89 in
(1012 mb)
SE 9.2 mph
(SE 15 kph)
0.03 in
(0.76 mm)
3SM
07:15
Overcast
Light Rain
48°F / 9°C 46°F / 8°C 94% 29.92 in
(1013 mb)
SE 10.4 mph
(SE 17 kph)
- 5SM
06:56
Overcast
Fog And Mist
48°F / 9°C 46°F / 8°C 94% 29.89 in
(1012 mb)
SE 10.4 mph
(SE 17 kph)
- 5SM
06:35
Overcast
Fog And Mist
48°F / 9°C 45°F / 7°C 87% 29.92 in
(1013 mb)
SE 10.4 mph
(SE 17 kph)
- 5SM
06:16
Overcast
48°F / 9°C 45°F / 7°C 87% 29.92 in
(1013 mb)
SE 9.2 mph
(SE 15 kph)
- 7SM
05:55
Overcast
46°F / 8°C 45°F / 7°C 93% 29.92 in
(1013 mb)
SE 10.4 mph
(SE 17 kph)
- 7SM
05:35
Overcast
46°F / 8°C 45°F / 7°C 93% 29.92 in
(1013 mb)
SE 9.2 mph
(SE 15 kph)
- 7SM
05:14
Overcast
46°F / 8°C 45°F / 7°C 93% 29.92 in
(1013 mb)
SE 11.5 mph
(SE 19 kph)
- 7SM
04:55
Overcast
46°F / 8°C 45°F / 7°C 93% 29.92 in
(1013 mb)
SE 10.4 mph
(SE 17 kph)
- 7SM
04:35
Overcast
46°F / 8°C 45°F / 7°C 93% 29.92 in
(1013 mb)
SE 9.2 mph
(SE 15 kph)
- 7SM
04:16
Overcast
46°F / 8°C 45°F / 7°C 93% 29.92 in
(1013 mb)
SE 9.2 mph
(SE 15 kph)
- 7SM
03:55
Overcast
46°F / 8°C 45°F / 7°C 93% 29.92 in
(1013 mb)
SE 10.4 mph
(SE 17 kph)
- 7SM
03:35
Overcast
Rain
48°F / 9°C 45°F / 7°C 87% 29.92 in
(1013 mb)
SE 11.5 mph
(SE 19 kph)
- 5SM
03:15
Overcast
48°F / 9°C 43°F / 6°C 82% 29.92 in
(1013 mb)
SE 10.4 mph
(SE 17 kph)
- 10SM
02:56
Overcast
48°F / 9°C 43°F / 6°C 82% 29.92 in
(1013 mb)
SE 10.4 mph
(SE 17 kph)
- 10SM
02:35
Overcast
48°F / 9°C 43°F / 6°C 82% 29.92 in
(1013 mb)
SE 10.4 mph
(SE 17 kph)
- 7SM
02:15
Overcast
46°F / 8°C 43°F / 6°C 87% 29.95 in
(1014 mb)
SE 8.1 mph
(SE 13 kph)
- 7SM
01:56
Overcast
46°F / 8°C 43°F / 6°C 87% 29.92 in
(1013 mb)
SE 11.5 mph
(SE 19 kph)
- 10SM
01:35
Overcast
46°F / 8°C 43°F / 6°C 87% 29.92 in
(1013 mb)
SE 8.1 mph
(SE 13 kph)
- 7SM
01:15
Overcast
46°F / 8°C 43°F / 6°C 87% 29.92 in
(1013 mb)
SE 9.2 mph
(SE 15 kph)
- 10SM
00:56
Overcast
46°F / 8°C 43°F / 6°C 87% 29.95 in
(1014 mb)
SE 10.4 mph
(SE 17 kph)
- 10SM
00:35
Mostly Cloudy
46°F / 8°C 43°F / 6°C 87% 29.95 in
(1014 mb)
SE 6.9 mph
(SE 11 kph)
- 7SM
00:16
Partly Cloudy
46°F / 8°C 43°F / 6°C 87% 29.95 in
(1014 mb)
SE 5.8 mph
(SE 9 kph)
- 10SM
Time Weather Temperature Dewpoint Humidity Pressure Winds Precip Visibility


Weather for websites

WeatherForYou.com, LLC is not responsible for any damages or problems caused by this service. Current weather conditions are obtained from the closest station including government and personal stations which may have varying degrees of accuracy. Weather forecasts are derived from the NOAA NDFD. Like all things, this site belongs to Jesus Christ... He just trusts me to maintain it. If you have any questions or comments email webmaster@weatherforyou.com

Copyright © 2014, WeatherForYou.com LLC. All rights reserved.